Flag for France Weather past 2 weeks in Boulogne-Billancourt, France

52 °F


Feels Like: 47 °F
Forecast: 44 / 53 °F
Wind: 16 mph from West

Location: Paris-Orly

Current Time: Dec 1, 2015 at 1:44:35 AM

Latest Report: Dec 1, 2015 at 1:00 AM

Visibility: N/A

Pressure: 30.30 "Hg

Humidity: 77%

Dew point: 45 °F

Location of Boulogne-BillancourtLocation

Historic Weather in Boulogne-Billancourt — Graph


Boulogne-Billancourt temperature yesterday

Maximum temperature yesterday: 55 °F (at 2:30 PM)
Minimum temperature yesterday: 50 °F (at 6:30 AM)
Average temperature yesterday: 53 °F

Past Weeks' High & Low Weather Summary

High61 °F (Nov 17, 10:00 AM)100% (Nov 17, 7:30 AM)30.33 "Hg (Nov 17, 7:30 AM)
Low32 °F (Nov 23, 12:00 AM)57% (Nov 22, 2:30 PM)29.56 "Hg (Nov 21, 4:30 AM)
Average47 °F85%30.02 "Hg
* Reported Midnight between Nov 15 and Nov 16 — Dec 1 12:30 AM, Boulogne-Billancourt, Weather by CustomWeather, © 2015

Note: Actual official high and low records may vary slightly from our data, if they occured in-between our weather recording intervals... More about our weather records


Boulogne-Billancourt weather history for previous 24 hours

Time TempWeatherWind HumidityBarometerVisibility
12:30 AM
Tue, Dec 1
52 °FOvercast.16 mph77%30.30 "HgN/A
12:00 AM52 °FOvercast.15 mph77%30.30 "HgN/A
11:30 PM
Mon, Nov 30
52 °FOvercast.14 mph77%30.30 "HgN/A
11:00 PM52 °FPassing clouds.17 mph77%30.30 "HgN/A
10:30 PM52 °FPassing clouds.15 mph77%30.30 "HgN/A
10:00 PM52 °FPassing clouds.15 mph82%30.30 "HgN/A
9:30 PM52 °FClear.14 mph82%30.27 "Hg10 mi
9:00 PM52 °FPassing clouds.14 mph82%30.27 "HgN/A
8:30 PM52 °FPassing clouds.12 mph82%30.27 "HgN/A
8:00 PM54 °FPassing clouds.12 mph77%30.27 "HgN/A
7:30 PM54 °FPartly cloudy.15 mph77%30.27 "HgN/A
7:00 PM54 °FPassing clouds.16 mph77%30.27 "HgN/A
6:30 PM54 °FPassing clouds.20 mph77%30.24 "HgN/A
6:00 PM54 °FPassing clouds.15 mph77%30.24 "HgN/A
5:30 PM54 °FPassing clouds.15 mph77%30.24 "HgN/A
5:00 PM54 °FPassing clouds.14 mph77%30.24 "HgN/A
4:30 PM54 °FPartly sunny.17 mph77%30.24 "HgN/A
4:00 PM54 °FPartly sunny.14 mph77%30.24 "HgN/A
3:30 PM54 °FBroken clouds.15 mph82%30.24 "HgN/A
3:00 PM54 °FPartly sunny.16 mph77%30.24 "HgN/A
2:30 PM55 °FPartly sunny.20 mph72%30.24 "HgN/A
2:00 PM54 °FBroken clouds.13 mph82%30.27 "HgN/A
1:30 PM54 °FBroken clouds.15 mph82%30.27 "HgN/A
1:00 PM54 °FBroken clouds.14 mph88%30.27 "HgN/A
12:30 PM52 °FLight rain. Partly sunny.15 mph94%30.30 "HgN/A
12:00 PM52 °FLight rain. Partly sunny.14 mph88%30.30 "HgN/A
11:30 AM54 °FLight rain. Partly sunny.16 mph82%30.30 "HgN/A
11:00 AM54 °FPartly sunny.15 mph77%30.30 "HgN/A
10:30 AM54 °FPartly sunny.14 mph82%30.30 "HgN/A
10:00 AM52 °FPartly sunny.13 mph82%30.33 "HgN/A
9:30 AM52 °FPartly sunny.14 mph82%30.33 "HgN/A
7:30 AM50 °FPartly cloudy.12 mph82%30.30 "HgN/A
6:30 AM50 °FPassing clouds.10 mph82%30.30 "HgN/A
6:00 AM52 °FPassing clouds.12 mph77%30.27 "HgN/A
5:30 AM52 °FPassing clouds.15 mph77%30.27 "HgN/A
4:30 AM52 °FPassing clouds.14 mph77%30.27 "HgN/A
4:00 AM52 °FPassing clouds.13 mph77%30.27 "HgN/A
3:30 AM52 °FPartly cloudy.15 mph77%30.27 "HgN/A
3:00 AM52 °FPassing clouds.15 mph77%30.27 "HgN/A
2:30 AM52 °FPassing clouds.16 mph77%30.24 "HgN/A
1:30 AM52 °FPassing clouds.15 mph77%30.24 "HgN/A
1:00 AM52 °FPassing clouds.17 mph77%30.24 "HgN/A
Weather by CustomWeather, © 2015

See weather overviewHow to use our weather pages